User: anonymous   Login
Location: Luz Observatory
(34.5000°N, 117.2833°W)
Time: 11:58:15
(UTC-08:00)
Language:

Okean 3 Rocket - Orbit

View from above orbital plane
View from above orbital plane
View from above satellite
View from above satellite

Ground track
Ground track

The orbit data is extracted from the following two-line orbital elements,

1 21398U 91039B   18055.91577823 +.00000045 +00000-0 +28215-5 0  9998
2 21398 082.5257 350.9244 0022965 075.3969 348.8776 14.79695754420246
Epoch (UTC): 24 February 2018 21:58:43
Eccentricity: 0.0022965
inclination: 82.5257°
perigee height: 614 km
apogee height: 646 km
right ascension of ascending node: 350.9244°
argument of perigee: 75.3969°
revolutions per day: 14.79695754
mean anomaly at epoch: 348.8776°
orbit number at epoch: 42024

The dashed part of the orbit path shows where the satellite is in the earth's shadow,  

DLR